Flag for USA

Past Weather in Chevak, Alaska, USA — Yesterday and Last 2 Weeks

Now
46 °F

Fog.


Feels Like: 44 °F
Forecast: 62 / 48 °F
Wind: 5 mph from Northwest

Location: Hooper Bay Weather Reporting System

Current Time: Jul 16, 2020 at 7:57:08 am

Latest Report: Jul 16, 2020 at 7:18 am


Visibility: 0 mi

Pressure: 29.84 "Hg

Humidity: 100%

Dew Point: 46 °F

Location of ChevakLocation

Past Weather in Chevak — Graph

°F

Chevak Temperature Yesterday

Maximum temperature yesterday: 55 °F (at 3:56 pm)
Minimum temperature yesterday: 47 °F (at 12:56 am)
Average temperature yesterday: 50 °F

High & Low Weather Summary for the Past Weeks

 TemperatureHumidityPressure
High63 °F (Jul 4, 4:56 pm)100% (Jul 4, 1:32 pm)30.16 "Hg (Jul 4, 1:32 pm)
Low44 °F (Jul 2, 11:56 pm)77% (Jul 3, 4:56 pm)29.76 "Hg (Jul 11, 8:56 pm)
Average50 °F92%30.00 "Hg
* Reported Jul 1 6:56 am — Jul 16 6:35 am, Chevak. Weather by CustomWeather, © 2020

Note: Actual official high and low records may vary slightly from our data, if they occured in-between our weather recording intervals... More about our weather records

Chevak Weather History for the Previous 24 Hours

Scroll right to see more
 ConditionsComfort  
Time TempWeatherWind HumidityBarometerVisibility
6:35 am
Thu, Jul 16
46 °FFog.3 mph100%29.84 "Hg0 mi
5:56 am50 °FSunny.6 mph96%29.84 "Hg8 mi
5:18 am50 °FSunny.3 mph100%29.84 "Hg8 mi
5:06 am50 °FFog.No wind94%29.85 "Hg2 mi
4:44 am48 °FFog.No wind100%29.84 "Hg1 mi
4:22 am48 °FFog.No wind100%29.84 "Hg1 mi
3:56 am47 °FFog.No wind100%29.85 "Hg1 mi
3:38 am48 °FFog.3 mph100%29.85 "Hg2 mi
3:24 am48 °FFog.No wind100%29.85 "Hg1 mi
2:56 am50 °FClear.No wind96%29.85 "Hg10 mi
1:56 am50 °FClear.7 mph96%29.85 "Hg10 mi
12:56 am50 °FSunny.10 mph96%29.85 "Hg10 mi
11:56 pm
Wed, Jul 15
51 °FPassing clouds.10 mph92%29.86 "Hg10 mi
10:56 pm52 °FSunny.15 mph89%29.85 "Hg10 mi
9:56 pm52 °FPassing clouds.16 mph89%29.86 "Hg10 mi
8:56 pm53 °FSunny.14 mph86%29.87 "Hg10 mi
7:56 pm53 °FSunny.16 mph86%29.88 "Hg10 mi
6:56 pm54 °FSunny.13 mph83%29.89 "Hg10 mi
5:56 pm55 °FSunny.13 mph77%29.91 "Hg10 mi
4:56 pm53 °FSunny.10 mph83%29.92 "Hg10 mi
3:56 pm55 °FPassing clouds.9 mph80%29.94 "Hg9 mi
3:11 pm54 °FScattered clouds.8 mph82%29.94 "Hg10 mi
2:56 pm53 °FOvercast.7 mph83%29.94 "Hg10 mi
1:56 pm53 °FLow clouds.6 mph83%29.95 "Hg10 mi
12:56 pm51 °FLow clouds.5 mph86%29.96 "Hg10 mi
11:56 am48 °FLow clouds.No wind93%29.95 "Hg10 mi
10:56 am48 °FLow clouds.No wind93%29.95 "Hg10 mi
9:56 am48 °FLow clouds.3 mph93%29.95 "Hg9 mi
8:56 am48 °FLow clouds.No wind93%29.95 "Hg10 mi
7:56 am47 °FLow clouds.5 mph97%29.96 "Hg10 mi
Weather by CustomWeather, © 2020

See weather overview